[[{"header":{"parameterUnit":"m.s-1","parameterCategory":2,"la1":30.2991,"la2":30.254,"lo1":-89.0895,"lo2":-89.0444,"dy":0.0017,"dx":0.0017,"nx":28,"ny":28,"refTime":"2025-01-14T03:00:00:Z","depth":"0","parameterNumber":2,"parameterNumberName":"U-component_of_CURRENTS"},"data":[0,0,0,0,0,0,0,0,0,0,0,0,0,0,0,0,0,0,0,0,0,0,0,0,0,0,0,0,0,0,0,0,0,0,0,0,0,0,0,0,0,0,0,0,0,0,0,0,0,0,0,0,0,0,0,0,0,0,-0.2562,-0.2563,0,-0.2599,-0.26,-0.26,-0.2525,-0.2523,-0.252,-0.2518,-0.24,-0.2399,-0.2398,0,0,0,0,0,0,0,0,0,0,0,0,0,-0.2452,-0.2455,-0.2562,-0.2563,-0.2563,-0.2599,-0.26,-0.26,-0.2525,-0.2523,-0.252,-0.2517,-0.24,-0.2399,-0.2398,0,0,0,0,0,0,0,0,0,0,0,0,0,-0.2494,-0.2455,-0.2562,-0.2532,-0.253,-0.2599,-0.26,-0.26,-0.2526,-0.2522,-0.2519,-0.2516,-0.2401,-0.2399,-0.2398,-0.2456,0,0,-0.2393,-0.2392,0,0,0,0,0,0,0,0,-0.2492,-0.2498,-0.2536,-0.2534,-0.2532,-0.2556,-0.2518,-0.2545,-0.2527,-0.2525,-0.2518,-0.2514,-0.2442,-0.2437,-0.245,-0.245,-0.2445,-0.2393,-0.2392,-0.2391,-0.2391,0,0,0,0,0,0,0,-0.2489,-0.2496,-0.2574,-0.2537,-0.2535,-0.2526,-0.2528,-0.2523,-0.2497,-0.2525,-0.252,-0.2529,-0.2439,-0.2452,-0.2446,-0.2444,-0.2393,-0.2391,-0.239,-0.239,-0.2458,-0.2461,0,0,0,0,0,0,-0.2492,-0.2494,-0.2573,-0.2576,-0.2505,-0.2531,-0.2533,-0.255,-0.2501,-0.2492,-0.2532,-0.2525,-0.2456,-0.2448,-0.2442,-0.247,-0.2391,-0.239,-0.2389,-0.2455,-0.2459,-0.2462,0,0,0,0,0,0,-0.2489,-0.2499,-0.2572,-0.2536,-0.2545,-0.2536,-0.2556,-0.2552,-0.2549,-0.2508,-0.2495,-0.253,-0.2453,-0.2444,-0.2446,-0.2465,-0.2389,-0.2388,-0.2452,-0.2456,-0.246,-0.255,0,0,0,0,0,0,-0.2486,-0.2498,-0.2511,-0.2537,-0.2547,-0.2614,-0.256,-0.2556,-0.2562,-0.2553,-0.2503,-0.249,-0.245,-0.2449,-0.2445,-0.2462,-0.2386,-0.2449,-0.2454,-0.2459,-0.2543,-0.2556,-0.2568,0,0,0,0,0,-0.2482,-0.2524,-0.2512,-0.2521,-0.2566,-0.2616,-0.2621,-0.26,-0.2565,-0.2581,-0.2552,-0.249,-0.2478,-0.2451,-0.2445,-0.2462,-0.2446,-0.2452,-0.2458,-0.2538,-0.2554,-0.2567,0,0,0,0,0,0,-0.2487,-0.2522,-0.2508,-0.2558,-0.2581,-0.2603,-0.2624,-0.2609,-0.2603,-0.2585,-0.253,-0.2518,-0.2527,-0.2498,-0.2469,-0.2502,-0.2451,-0.2456,-0.2514,-0.2528,-0.254,-0.253,-0.2385,0,0,0,0,0,-0.2497,-0.253,-0.2558,-0.2596,-0.2612,-0.2616,-0.2632,-0.2621,-0.2623,-0.2616,-0.2586,-0.2561,-0.2558,-0.2542,-0.2537,-0.2557,-0.2511,-0.2566,-0.2579,-0.2589,-0.2581,-0.2552,-0.256,-0.2482,-0.2482,-0.2482,0,0,-0.2508,-0.2532,-0.255,-0.2598,-0.2613,-0.2655,-0.2616,-0.2649,-0.2671,-0.2606,-0.2623,-0.2604,-0.2577,-0.2599,-0.26,-0.2567,-0.2592,-0.2597,-0.2605,-0.2591,-0.2559,-0.2566,-0.2572,-0.2486,-0.2485,-0.2485,0,0,-0.2554,-0.2572,-0.2611,-0.2642,-0.2674,-0.2685,-0.2695,-0.2719,-0.2712,-0.2742,-0.27,-0.2696,-0.2693,-0.2676,-0.2667,-0.2748,-0.2663,-0.2748,-0.2787,-0.2761,-0.2766,-0.2769,-0.2728,-0.2727,-0.2745,-0.2745,-0.2746,0,-0.2555,-0.2609,-0.2631,-0.268,-0.2703,-0.27,-0.2741,-0.2762,-0.2778,-0.2776,-0.2753,-0.2756,-0.2729,-0.2744,-0.2772,-0.277,-0.2735,-0.2728,-0.2773,-0.2775,-0.2777,-0.2734,-0.2732,-0.275,-0.275,-0.2749,-0.2749,0,-0.2629,-0.2669,-0.2702,-0.2753,-0.2789,-0.2827,-0.2856,-0.2875,-0.2864,-0.2867,-0.2879,-0.2863,-0.2848,-0.2856,-0.2835,-0.2849,-0.2814,-0.2794,-0.2725,-0.279,-0.2741,-0.2737,-0.2758,-0.2756,-0.2754,-0.2753,0,0,-0.2614,-0.2726,-0.2728,-0.2753,-0.2821,-0.285,-0.2906,-0.2938,-0.2943,-0.2963,-0.2962,-0.2983,-0.2952,-0.2942,-0.2918,-0.29,-0.2893,-0.2857,-0.2853,-0.2797,-0.2821,-0.2779,-0.277,-0.2876,-0.2876,-0.2876,-0.2782,0,-0.2642,-0.273,-0.2786,-0.2853,-0.289,-0.2923,-0.297,-0.2999,-0.3006,-0.3012,-0.3,-0.2998,-0.2993,-0.2974,-0.2966,-0.2904,-0.2886,-0.2919,-0.2781,-0.2777,-0.2717,-0.2766,-0.2647,-0.2552,-0.2777,-0.2776,-0.2776,0,-0.2668,-0.2721,-0.2793,-0.2873,-0.2892,-0.2933,-0.2969,-0.3015,-0.3041,-0.3044,-0.305,-0.3033,-0.3024,-0.3001,-0.2939,-0.2958,-0.2901,-0.2856,-0.2851,-0.2772,-0.2728,-0.2525,-0.2536,-0.2508,-0.2769,-0.2769,-0.277,0,-0.2599,-0.2713,-0.2757,-0.2789,-0.2891,-0.2913,-0.2956,-0.3003,-0.302,-0.3047,-0.3036,-0.3045,-0.3009,-0.2972,-0.2904,-0.2911,-0.2815,-0.2806,-0.2719,-0.2714,-0.2564,-0.2547,-0.251,-0.2759,-0.276,-0.276,-0.276,0,-0.2582,-0.2608,-0.2723,-0.2741,-0.2772,-0.2868,-0.289,-0.2934,-0.2982,-0.2971,-0.303,-0.3003,-0.2996,-0.2947,-0.29,-0.2796,-0.2811,-0.2724,-0.2691,-0.2596,-0.2584,-0.2512,-0.2532,-0.2756,-0.2757,-0.2758,-0.2758,0,-0.2469,-0.2562,-0.2602,-0.2707,-0.2735,-0.2743,-0.2833,-0.2835,-0.2915,-0.2896,-0.29,-0.2944,-0.2898,-0.2887,-0.2806,-0.2761,-0.263,-0.2643,-0.2533,-0.2489,-0.2392,-0.2422,-0.2337,-0.2271,-0.2526,-0.2525,-0.2523,0,-0.2413,-0.2427,-0.2527,-0.2526,-0.2561,-0.2609,-0.2623,-0.2757,-0.2762,-0.2834,-0.2794,-0.2803,-0.2767,-0.2685,-0.2633,-0.256,-0.2547,-0.2392,-0.2397,-0.2373,-0.2381,-0.2403,-0.2356,-0.2229,-0.2225,-0.2222,-0.222,0,-0.2263,-0.2299,-0.2319,-0.2336,-0.2354,-0.2397,-0.244,-0.2453,-0.2578,-0.2592,-0.2586,-0.2586,-0.257,-0.2475,-0.2435,-0.2368,-0.2334,-0.233,-0.232,-0.2165,-0.2167,-0.209,-0.2308,-0.2194,-0.2196,-0.2198,-0.22,-0.2201,-0.21,-0.2074,-0.21,-0.2103,-0.213,-0.2141,-0.2127,-0.2195,-0.2215,-0.223,-0.2331,-0.2319,-0.2315,-0.2265,-0.221,-0.2086,-0.2158,-0.2002,-0.2042,-0.2069,-0.2006,-0.2178,-0.2029,-0.203,-0.2032,-0.2033,-0.2034,0,-0.1877,-0.1876,-0.1859,-0.1869,-0.1833,-0.1928,-0.1957,-0.193,-0.1903,-0.1988,-0.2005,-0.2041,-0.1966,-0.1983,-0.1903,-0.1816,-0.1769,-0.1765,-0.1756,-0.1722,-0.1859,-0.1847,-0.1633,-0.1633,-0.1633,-0.1633,-0.1633,-0.1633,-0.175,-0.1666,-0.1681,-0.1571,-0.1579,-0.1512,-0.1506,-0.1504,-0.1549,-0.1568,-0.1648,-0.1769,-0.1807,-0.1899,-0.1769,-0.1675,-0.1633,-0.158,-0.1624,-0.1721,-0.1746,-0.177,-0.1763,-0.1535,-0.1535,-0.1398,-0.1397,-0.1396]},{"header":{"parameterUnit":"m.s-1","parameterCategory":2,"la1":30.2991,"la2":30.254,"lo1":-89.0895,"lo2":-89.0444,"dy":0.0017,"dx":0.0017,"nx":28,"ny":28,"refTime":"2025-01-14T03:00:00:Z","depth":"0","parameterNumber":3,"parameterNumberName":"V-component_of_CURRENTS"},"data":[0,0,0,0,0,0,0,0,0,0,0,0,0,0,0,0,0,0,0,0,0,0,0,0,0,0,0,0,0,0,0,0,0,0,0,0,0,0,0,0,0,0,0,0,0,0,0,0,0,0,0,0,0,0,0,0,0,0,-0.0534,-0.0533,0,-0.0468,-0.0467,-0.0466,-0.0432,-0.0432,-0.0432,-0.0432,-0.0313,-0.031,-0.0307,0,0,0,0,0,0,0,0,0,0,0,0,0,-0.0584,-0.0584,-0.0534,-0.0533,-0.0533,-0.0468,-0.0467,-0.0466,-0.0432,-0.0432,-0.0432,-0.0432,-0.0314,-0.0311,-0.0307,0,0,0,0,0,0,0,0,0,0,0,0,0,-0.0545,-0.0584,-0.0534,-0.0508,-0.0504,-0.0468,-0.0467,-0.0466,-0.0432,-0.0432,-0.0432,-0.0432,-0.0316,-0.0311,-0.0307,-0.028,0,0,-0.0292,-0.029,0,0,0,0,0,0,0,0,-0.0548,-0.0543,-0.0512,-0.0509,-0.0506,-0.0458,-0.0441,-0.0401,-0.0432,-0.046,-0.0432,-0.0432,-0.0357,-0.0349,-0.0338,-0.0274,-0.0269,-0.0292,-0.0289,-0.0287,-0.0286,0,0,0,0,0,0,0,-0.055,-0.0546,-0.0508,-0.0511,-0.0507,-0.0483,-0.0477,-0.0433,-0.0409,-0.0458,-0.0455,-0.0447,-0.0355,-0.0342,-0.0334,-0.0267,-0.0292,-0.0288,-0.0285,-0.0283,-0.0166,-0.0166,0,0,0,0,0,0,-0.056,-0.0549,-0.051,-0.0506,-0.0526,-0.0482,-0.0476,-0.0474,-0.0411,-0.0401,-0.0447,-0.0446,-0.035,-0.034,-0.033,-0.0291,-0.0287,-0.0283,-0.028,-0.0167,-0.0166,-0.0166,0,0,0,0,0,0,-0.0562,-0.0558,-0.0513,-0.0525,-0.0518,-0.0482,-0.0479,-0.0472,-0.0461,-0.0403,-0.0393,-0.0442,-0.035,-0.0337,-0.0294,-0.0286,-0.0281,-0.0276,-0.0167,-0.0167,-0.0166,-0.0215,0,0,0,0,0,0,-0.0564,-0.0559,-0.0566,-0.0526,-0.0517,-0.0496,-0.0479,-0.0471,-0.0456,-0.0453,-0.0395,-0.0384,-0.0349,-0.0302,-0.029,-0.028,-0.0273,-0.0168,-0.0167,-0.0166,-0.0214,-0.0216,-0.0218,0,0,0,0,0,-0.0566,-0.058,-0.0567,-0.0562,-0.0527,-0.0496,-0.049,-0.0463,-0.0456,-0.0452,-0.0414,-0.0386,-0.0289,-0.0298,-0.0284,-0.0272,-0.0168,-0.0167,-0.0166,-0.0213,-0.0215,-0.0218,0,0,0,0,0,0,-0.0605,-0.0577,-0.0562,-0.0566,-0.0534,-0.0491,-0.049,-0.0467,-0.0435,-0.0434,-0.0381,-0.0367,-0.0327,-0.0293,-0.0304,-0.0237,-0.0224,-0.022,-0.0263,-0.0266,-0.0268,-0.0287,-0.0269,0,0,0,0,0,-0.0616,-0.0622,-0.058,-0.0583,-0.0571,-0.053,-0.0516,-0.0494,-0.0458,-0.0445,-0.0402,-0.0356,-0.0313,-0.0286,-0.0245,-0.0207,-0.0167,-0.019,-0.0192,-0.0194,-0.02,-0.0132,-0.0129,-0.0164,-0.0164,-0.0164,0,0,-0.0634,-0.0618,-0.0621,-0.0592,-0.0568,-0.0555,-0.0522,-0.0505,-0.049,-0.0435,-0.0408,-0.0363,-0.0305,-0.0266,-0.0244,-0.0236,-0.0164,-0.0194,-0.0196,-0.02,-0.0131,-0.0127,-0.0124,-0.0163,-0.0163,-0.0163,0,0,-0.0667,-0.0654,-0.0667,-0.0644,-0.061,-0.0581,-0.0577,-0.0531,-0.0509,-0.0473,-0.043,-0.0383,-0.032,-0.0274,-0.0243,-0.0231,-0.018,-0.0217,-0.0239,-0.0172,-0.0169,-0.0166,-0.0114,-0.0105,-0.0215,-0.0215,-0.0215,0,-0.0686,-0.0694,-0.0663,-0.0663,-0.0651,-0.0596,-0.0597,-0.0564,-0.0508,-0.0483,-0.0473,-0.0369,-0.0323,-0.0263,-0.0263,-0.0236,-0.0196,-0.0235,-0.0176,-0.0172,-0.0167,-0.0115,-0.0105,-0.0217,-0.0217,-0.0217,-0.0217,0,-0.0723,-0.0727,-0.0731,-0.0714,-0.0695,-0.0687,-0.0635,-0.0608,-0.0573,-0.053,-0.0467,-0.0401,-0.034,-0.0314,-0.0286,-0.023,-0.0211,-0.019,-0.0173,-0.0167,-0.0112,-0.0101,-0.0221,-0.022,-0.0219,-0.0219,0,0,-0.0769,-0.0761,-0.0761,-0.0763,-0.0722,-0.0709,-0.0682,-0.0633,-0.0608,-0.0546,-0.0507,-0.0429,-0.0388,-0.0351,-0.0299,-0.0242,-0.0179,-0.0211,-0.0207,-0.0167,-0.004,0.0003,0.002,-0.0146,-0.0144,-0.0143,-0.0016,0,-0.0803,-0.0826,-0.0804,-0.0814,-0.082,-0.0764,-0.0743,-0.069,-0.0631,-0.0578,-0.0493,-0.0438,-0.0402,-0.0371,-0.031,-0.0207,-0.0152,-0.0216,-0.0046,-0.0041,-0.0009,0.0034,0.0061,0.018,-0.0004,-0.0002,-0.0001,0,-0.0845,-0.0854,-0.088,-0.0867,-0.0862,-0.0855,-0.0804,-0.0776,-0.0682,-0.0635,-0.0559,-0.0488,-0.0395,-0.037,-0.0199,-0.0242,-0.0155,-0.0077,-0.0069,-0.0006,0.0024,0.0146,0.0207,0.0361,0.0017,0.0015,0.0014,0,-0.09,-0.0904,-0.093,-0.0927,-0.0902,-0.0895,-0.0872,-0.0794,-0.0762,-0.0667,-0.0625,-0.0507,-0.044,-0.0315,-0.0163,-0.0176,0.0027,0.0035,0.0156,0.016,0.0229,0.0236,0.0453,0.015,0.015,0.0149,0.0149,0,-0.0949,-0.0965,-0.096,-0.0975,-0.099,-0.0952,-0.0941,-0.0892,-0.082,-0.0773,-0.0663,-0.06,-0.0422,-0.0285,-0.0161,0.004,0.0035,0.0163,0.0204,0.0213,0.0216,0.0388,0.0438,0.0154,0.0153,0.0152,0.0151,0,-0.0997,-0.1001,-0.1026,-0.102,-0.102,-0.1028,-0.0998,-0.0977,-0.0903,-0.0837,-0.0809,-0.0652,-0.0465,-0.028,-0.006,0.0053,0.0331,0.0295,0.0285,0.0323,0.0571,0.0615,0.086,0.0943,0.0456,0.0458,0.0459,0,-0.1022,-0.1045,-0.1065,-0.108,-0.1077,-0.1085,-0.1082,-0.1028,-0.1,-0.0865,-0.0836,-0.0646,-0.0503,-0.0163,0.0078,0.0329,0.043,0.0491,0.0474,0.0606,0.0687,0.0718,0.0771,0.0547,0.0549,0.0551,0.0552,0,-0.1048,-0.1058,-0.1073,-0.1118,-0.1132,-0.1147,-0.1139,-0.1138,-0.1056,-0.0991,-0.0871,-0.0748,-0.0399,-0.0097,0.0239,0.0387,0.061,0.0536,0.0692,0.0796,0.0828,0.0919,0.0427,0.0569,0.0567,0.0566,0.0565,0.0564,-0.1047,-0.1071,-0.1096,-0.1133,-0.1162,-0.1189,-0.1198,-0.118,-0.1146,-0.1035,-0.0919,-0.0712,-0.0253,0.023,0.0412,0.081,0.0768,0.0916,0.0964,0.0987,0.1061,0.0596,0.0769,0.0769,0.0768,0.0768,0.0768,0,-0.1028,-0.1061,-0.1103,-0.115,-0.1186,-0.1196,-0.1212,-0.1206,-0.1174,-0.1058,-0.0933,-0.0455,0.0006,0.0437,0.1001,0.1219,0.1261,0.1325,0.1382,0.142,0.1039,0.1036,0.1253,0.1252,0.1252,0.1252,0.1252,0.1252,-0.1013,-0.1046,-0.108,-0.1143,-0.1183,-0.1214,-0.1224,-0.1212,-0.1144,-0.0951,-0.0712,-0.0525,0.0121,0.1038,0.1568,0.162,0.1793,0.1785,0.1877,0.1615,0.158,0.1546,0.156,0.1882,0.1883,0.2242,0.2246,0.2249]}],[{"header":{"parameterUnit":"m.s-1","parameterCategory":2,"la1":30.2991,"la2":30.254,"lo1":-89.0895,"lo2":-89.0444,"dy":0.0017,"dx":0.0017,"nx":28,"ny":28,"refTime":"2025-01-14T03:00:00:Z","depth":"2","parameterNumber":2,"parameterNumberName":"U-component_of_CURRENTS"},"data":[0,0,0,0,0,0,0,0,0,0,0,0,0,0,0,0,0,0,0,0,0,0,0,0,0,0,0,0,0,0,0,0,0,0,0,0,0,0,0,0,0,0,0,0,0,0,0,0,0,0,0,0,0,0,0,0,0,0,-0.2136,-0.2137,0,-0.2174,-0.2174,-0.2174,-0.2086,-0.2084,-0.2083,-0.2081,-0.2027,-0.2027,-0.2028,0,0,0,0,0,0,0,0,0,0,0,0,0,-0.2003,-0.2005,-0.2136,-0.2137,-0.2139,-0.2174,-0.2174,-0.2173,-0.2087,-0.2084,-0.2082,-0.208,-0.2027,-0.2027,-0.2028,0,0,0,0,0,0,0,0,0,0,0,0,0,-0.2043,-0.2005,-0.2136,-0.2107,-0.2105,-0.2174,-0.2174,-0.2173,-0.2087,-0.2084,-0.2081,-0.2079,-0.2027,-0.2027,-0.2028,-0.2088,0,0,-0.2029,-0.203,0,0,0,0,0,0,0,0,-0.2041,-0.2047,-0.211,-0.2109,-0.2108,-0.2131,-0.2108,-0.2144,-0.2088,-0.2084,-0.2081,-0.2077,-0.2062,-0.206,-0.206,-0.2085,-0.2083,-0.2029,-0.203,-0.203,-0.203,0,0,0,0,0,0,0,-0.2038,-0.2045,-0.2141,-0.2112,-0.2111,-0.2098,-0.2099,-0.2114,-0.2079,-0.2084,-0.208,-0.2101,-0.2059,-0.206,-0.2058,-0.2082,-0.2029,-0.203,-0.203,-0.203,-0.2131,-0.2133,0,0,0,0,0,0,-0.2057,-0.2043,-0.214,-0.2143,-0.2078,-0.2103,-0.2104,-0.2118,-0.2081,-0.2076,-0.2103,-0.2097,-0.2061,-0.2058,-0.2056,-0.2107,-0.203,-0.203,-0.2031,-0.2129,-0.2132,-0.2134,0,0,0,0,0,0,-0.2053,-0.2065,-0.2139,-0.2102,-0.2111,-0.211,-0.2126,-0.2121,-0.2116,-0.2098,-0.2089,-0.2103,-0.2058,-0.2055,-0.2079,-0.2104,-0.2031,-0.2031,-0.2126,-0.213,-0.2133,-0.222,0,0,0,0,0,0,-0.2049,-0.2063,-0.2079,-0.2103,-0.2115,-0.2178,-0.2129,-0.2124,-0.2139,-0.213,-0.2097,-0.2088,-0.2056,-0.2078,-0.2079,-0.2104,-0.2032,-0.2123,-0.2128,-0.2132,-0.2215,-0.2227,-0.2237,0,0,0,0,0,-0.2044,-0.2086,-0.2079,-0.2091,-0.2136,-0.2181,-0.2184,-0.2166,-0.2142,-0.2148,-0.2135,-0.2089,-0.2106,-0.2082,-0.2082,-0.2107,-0.2121,-0.2126,-0.2132,-0.221,-0.2224,-0.2237,0,0,0,0,0,0,-0.204,-0.2083,-0.2075,-0.2127,-0.2151,-0.2169,-0.2189,-0.218,-0.2177,-0.2169,-0.2129,-0.2122,-0.2151,-0.213,-0.2104,-0.2151,-0.2104,-0.2109,-0.2163,-0.2176,-0.2187,-0.2176,-0.2032,0,0,0,0,0,-0.2052,-0.2088,-0.2119,-0.2162,-0.2175,-0.2183,-0.22,-0.2196,-0.2204,-0.2198,-0.2181,-0.2171,-0.2179,-0.2176,-0.218,-0.2216,-0.2177,-0.2231,-0.2242,-0.2252,-0.2246,-0.2213,-0.2219,-0.2152,-0.2152,-0.2152,0,0,-0.2059,-0.2096,-0.2112,-0.2164,-0.2177,-0.2211,-0.2182,-0.2223,-0.2244,-0.2198,-0.2218,-0.2216,-0.2201,-0.2233,-0.2243,-0.2213,-0.2258,-0.2258,-0.2266,-0.2255,-0.2219,-0.2225,-0.223,-0.2155,-0.2155,-0.2154,0,0,-0.2101,-0.2128,-0.2161,-0.2188,-0.2234,-0.2249,-0.2263,-0.2289,-0.2283,-0.2329,-0.2294,-0.231,-0.2327,-0.2313,-0.231,-0.2392,-0.2323,-0.2395,-0.2434,-0.2404,-0.2408,-0.2411,-0.2395,-0.2395,-0.2393,-0.2394,-0.2394,0,-0.2109,-0.2155,-0.2179,-0.2221,-0.2246,-0.2266,-0.2298,-0.2318,-0.2347,-0.2352,-0.2344,-0.2373,-0.2363,-0.2384,-0.2411,-0.2414,-0.2385,-0.2381,-0.2415,-0.2417,-0.2418,-0.24,-0.24,-0.2398,-0.2398,-0.2397,-0.2397,0,-0.2159,-0.2199,-0.223,-0.2279,-0.231,-0.2354,-0.2385,-0.2412,-0.2426,-0.2437,-0.247,-0.2473,-0.2474,-0.2489,-0.2477,-0.2492,-0.2467,-0.2435,-0.2373,-0.243,-0.2409,-0.2407,-0.2405,-0.2404,-0.2402,-0.2401,0,0,-0.2157,-0.2243,-0.2251,-0.2264,-0.2342,-0.2363,-0.2425,-0.2464,-0.2477,-0.2523,-0.2528,-0.2577,-0.2566,-0.2563,-0.255,-0.2536,-0.2543,-0.2496,-0.2492,-0.2466,-0.2481,-0.2431,-0.2424,-0.2507,-0.2507,-0.2507,-0.2469,0,-0.2179,-0.2243,-0.2296,-0.2348,-0.2367,-0.2417,-0.2463,-0.2504,-0.2534,-0.2549,-0.2567,-0.2575,-0.2596,-0.2589,-0.2591,-0.2546,-0.2537,-0.2556,-0.244,-0.2437,-0.2374,-0.2419,-0.2232,-0.2179,-0.2467,-0.2466,-0.2466,0,-0.2187,-0.2232,-0.228,-0.2346,-0.236,-0.2403,-0.2451,-0.25,-0.2546,-0.2564,-0.2594,-0.2592,-0.2608,-0.2595,-0.2575,-0.2583,-0.2544,-0.2513,-0.251,-0.2424,-0.2383,-0.2165,-0.2163,-0.2461,-0.2462,-0.2462,-0.2462,0,-0.2119,-0.2209,-0.224,-0.2264,-0.2354,-0.2382,-0.2433,-0.2494,-0.2518,-0.2556,-0.2563,-0.2591,-0.2583,-0.2562,-0.2541,-0.2543,-0.2492,-0.2475,-0.2401,-0.2397,-0.2194,-0.2173,-0.2441,-0.2441,-0.2441,-0.2441,-0.2441,0,-0.2104,-0.2125,-0.2205,-0.2221,-0.2247,-0.233,-0.2367,-0.2419,-0.2479,-0.2487,-0.2553,-0.2548,-0.2569,-0.2551,-0.253,-0.2471,-0.2486,-0.2411,-0.2381,-0.2225,-0.2208,-0.241,-0.2407,-0.2439,-0.244,-0.244,-0.244,0,-0.2017,-0.2083,-0.2107,-0.2192,-0.2214,-0.2225,-0.2319,-0.2334,-0.2419,-0.2426,-0.2433,-0.25,-0.2494,-0.2511,-0.2464,-0.2441,-0.2389,-0.2355,-0.2189,-0.214,-0.232,-0.2322,-0.2269,-0.2267,-0.2265,-0.2263,-0.2262,0,-0.1971,-0.1976,-0.2046,-0.2048,-0.2088,-0.213,-0.2155,-0.2272,-0.2288,-0.2382,-0.2359,-0.2395,-0.2382,-0.235,-0.2311,-0.2268,-0.2331,-0.206,-0.2034,-0.2325,-0.2301,-0.2306,-0.2311,-0.1808,-0.1803,-0.1799,-0.1796,0,-0.1864,-0.1894,-0.1913,-0.1921,-0.1941,-0.197,-0.2019,-0.2027,-0.2149,-0.2172,-0.2191,-0.2198,-0.2212,-0.2101,-0.2082,-0.2025,-0.2062,-0.1979,-0.2287,-0.1895,-0.189,-0.1868,-0.1887,-0.176,-0.1764,-0.1766,-0.1768,-0.177,-0.1756,-0.1737,-0.176,-0.1759,-0.1782,-0.1783,-0.1765,-0.1824,-0.1842,-0.186,-0.1965,-0.1941,-0.1959,-0.1848,-0.177,-0.1722,-0.1863,-0.1763,-0.1774,-0.179,-0.1758,-0.1752,-0.159,-0.1593,-0.1595,-0.1597,-0.1598,0,-0.1595,-0.16,-0.1589,-0.1587,-0.1557,-0.1629,-0.1641,-0.1604,-0.1572,-0.1637,-0.1654,-0.1526,-0.1479,-0.152,-0.1397,-0.138,-0.1355,-0.1313,-0.1273,-0.1309,-0.1341,-0.1286,-0.0992,-0.0991,-0.0989,-0.0988,0,0,-0.1508,-0.1448,-0.1454,-0.1359,-0.136,-0.1289,-0.1269,-0.1243,-0.1258,-0.1217,-0.1229,-0.1378,-0.145,-0.1216,-0.1167,-0.1062,-0.1167,-0.1002,-0.1484,-0.147,-0.15,-0.1593,-0.1547,0,0,0,0,0]},{"header":{"parameterUnit":"m.s-1","parameterCategory":2,"la1":30.2991,"la2":30.254,"lo1":-89.0895,"lo2":-89.0444,"dy":0.0017,"dx":0.0017,"nx":28,"ny":28,"refTime":"2025-01-14T03:00:00:Z","depth":"2","parameterNumber":3,"parameterNumberName":"V-component_of_CURRENTS"},"data":[0,0,0,0,0,0,0,0,0,0,0,0,0,0,0,0,0,0,0,0,0,0,0,0,0,0,0,0,0,0,0,0,0,0,0,0,0,0,0,0,0,0,0,0,0,0,0,0,0,0,0,0,0,0,0,0,0,0,-0.0113,-0.0113,0,-0.0064,-0.0063,-0.0062,-0.0019,-0.0019,-0.0019,-0.0018,0.0039,0.004,0.0042,0,0,0,0,0,0,0,0,0,0,0,0,0,-0.0115,-0.0115,-0.0113,-0.0113,-0.0112,-0.0064,-0.0063,-0.0062,-0.0019,-0.0019,-0.0019,-0.0018,0.0038,0.004,0.0042,0,0,0,0,0,0,0,0,0,0,0,0,0,-0.0091,-0.0115,-0.0113,-0.0088,-0.0085,-0.0064,-0.0063,-0.0062,-0.0019,-0.0019,-0.0018,-0.0018,0.0038,0.004,0.0042,0.0049,0,0,0.0048,0.0049,0,0,0,0,0,0,0,0,-0.0093,-0.0091,-0.0092,-0.0089,-0.0087,-0.0051,-0.0043,-0.0026,-0.0019,-0.004,-0.0018,-0.0018,0.0007,0.0012,0.0025,0.0052,0.0054,0.0048,0.005,0.005,0.0051,0,0,0,0,0,0,0,-0.0094,-0.0092,-0.009,-0.0091,-0.0088,-0.0061,-0.0057,-0.0039,-0.0016,-0.0038,-0.0036,-0.0036,0.0009,0.0023,0.0027,0.0055,0.0048,0.005,0.0051,0.0052,0.0116,0.0116,0,0,0,0,0,0,-0.0111,-0.0094,-0.0091,-0.0089,-0.0093,-0.0061,-0.0057,-0.0059,-0.0016,-0.001,-0.0037,-0.0035,0.002,0.0025,0.0029,0.0043,0.005,0.0052,0.0054,0.0115,0.0116,0.0116,0,0,0,0,0,0,-0.0111,-0.0111,-0.0093,-0.0093,-0.0089,-0.0062,-0.0065,-0.0059,-0.0049,-0.0015,-0.0009,-0.0035,0.002,0.0026,0.005,0.0045,0.0053,0.0055,0.0115,0.0115,0.0116,0.0069,0,0,0,0,0,0,-0.0112,-0.0112,-0.0122,-0.0094,-0.009,-0.0086,-0.0065,-0.0058,-0.0051,-0.0048,-0.0011,-0.0005,0.0021,0.0047,0.0052,0.0048,0.0057,0.0114,0.0115,0.0116,0.007,0.0068,0.0066,0,0,0,0,0,-0.0112,-0.0129,-0.0122,-0.0122,-0.0104,-0.0086,-0.0081,-0.0058,-0.0052,-0.0048,-0.0018,-0.0007,0.0056,0.0049,0.0055,0.0051,0.0114,0.0115,0.0116,0.0071,0.0068,0.0066,0,0,0,0,0,0,-0.0137,-0.0126,-0.0118,-0.0132,-0.0113,-0.0081,-0.0083,-0.0066,-0.0039,-0.004,-0.0003,0.0005,0.0025,0.0047,0.0038,0.0075,0.0087,0.009,0.0051,0.0049,0.0047,0.0035,0.0058,0,0,0,0,0,-0.0149,-0.016,-0.0136,-0.0149,-0.0142,-0.0113,-0.0106,-0.009,-0.0064,-0.0052,-0.0025,0.0006,0.0035,0.0048,0.0076,0.0091,0.0122,0.0096,0.0094,0.0092,0.0088,0.0139,0.0141,0.012,0.012,0.012,0,0,-0.0163,-0.0161,-0.0166,-0.0156,-0.0141,-0.0136,-0.0107,-0.0102,-0.0095,-0.0052,-0.0036,-0.0004,0.0038,0.0061,0.0072,0.0078,0.0114,0.0093,0.0091,0.0088,0.0141,0.0143,0.0144,0.012,0.012,0.012,0,0,-0.0198,-0.0194,-0.0211,-0.0199,-0.0185,-0.0163,-0.0165,-0.0134,-0.0116,-0.0098,-0.006,-0.0026,0.0008,0.0047,0.0068,0.0073,0.0102,0.0078,0.0057,0.0106,0.0108,0.011,0.0147,0.0153,0.0077,0.0077,0.0077,0,-0.0218,-0.0236,-0.0212,-0.0222,-0.0219,-0.0179,-0.0189,-0.0162,-0.0127,-0.0112,-0.0101,-0.0029,0.0003,0.0046,0.0049,0.0067,0.0095,0.0057,0.0103,0.0105,0.0108,0.0146,0.0153,0.0075,0.0075,0.0075,0.0076,0,-0.0259,-0.0272,-0.0281,-0.028,-0.0268,-0.0272,-0.0234,-0.0217,-0.0194,-0.0164,-0.0122,-0.0065,-0.0021,-0.0003,0.0021,0.006,0.0073,0.0092,0.0103,0.0107,0.0147,0.0155,0.0072,0.0073,0.0073,0.0074,0,0,-0.031,-0.0311,-0.0316,-0.0323,-0.0301,-0.0296,-0.0281,-0.0252,-0.0241,-0.0194,-0.0169,-0.0108,-0.0072,-0.0044,0.0002,0.0045,0.0089,0.0069,0.0073,0.0096,0.0189,0.0219,0.0231,0.0113,0.0115,0.0116,0.0206,0,-0.0351,-0.0385,-0.0369,-0.0392,-0.0401,-0.036,-0.0348,-0.0314,-0.0275,-0.0237,-0.0164,-0.0125,-0.0088,-0.0065,-0.0014,0.0066,0.0109,0.0062,0.019,0.0194,0.0212,0.0241,0.0206,0.0286,0.0215,0.0216,0.0217,0,-0.0395,-0.0413,-0.0446,-0.0446,-0.0446,-0.0449,-0.0421,-0.0405,-0.0336,-0.0304,-0.0243,-0.0181,-0.0103,-0.0074,0.0061,0.0028,0.0099,0.0161,0.0166,0.0216,0.0239,0.0273,0.0304,0.0231,0.023,0.0229,0.0228,0,-0.0445,-0.0465,-0.0495,-0.0497,-0.0488,-0.0491,-0.0481,-0.043,-0.0414,-0.0341,-0.0317,-0.0212,-0.0157,-0.0052,0.0076,0.0069,0.0224,0.0235,0.033,0.0332,0.034,0.0341,0.0327,0.0327,0.0327,0.0326,0.0326,0,-0.0498,-0.0523,-0.0523,-0.0543,-0.0572,-0.0543,-0.0555,-0.0525,-0.0476,-0.0455,-0.0357,-0.0314,-0.015,-0.0039,0.007,0.0228,0.0224,0.0333,0.0364,0.0322,0.0321,0.0302,0.0298,0.033,0.0329,0.0328,0.0328,0,-0.0552,-0.0554,-0.0589,-0.0595,-0.0601,-0.0621,-0.0617,-0.0616,-0.0564,-0.053,-0.0507,-0.0379,-0.0231,-0.0064,0.012,0.0222,0.0367,0.042,0.0356,0.0378,0.0441,0.0434,0.0539,0.0541,0.0543,0.0544,0.0545,0,-0.058,-0.0606,-0.0636,-0.066,-0.067,-0.0692,-0.0704,-0.0668,-0.066,-0.0571,-0.0557,-0.0406,-0.0293,-0.001,0.0198,0.0413,0.041,0.0502,0.0491,0.0447,0.0466,0.0456,0.0446,0.0479,0.048,0.048,0.048,0,-0.0632,-0.0643,-0.0673,-0.0723,-0.0751,-0.0778,-0.079,-0.0798,-0.0741,-0.0699,-0.0618,-0.0519,-0.0239,-0.0004,0.0285,0.0403,0.0468,0.0519,0.0504,0.043,0.0398,0.0414,0.0405,0.0484,0.0484,0.0484,0.0483,0.0483,-0.0663,-0.0696,-0.0732,-0.0776,-0.0813,-0.0845,-0.0861,-0.0858,-0.0841,-0.0763,-0.0674,-0.0513,-0.0269,0.0131,0.0337,0.0533,0.053,0.0576,0.0572,0.0568,0.0543,0.0516,0.062,0.062,0.062,0.0621,0.0621,0,-0.0686,-0.0725,-0.0776,-0.0826,-0.0866,-0.0874,-0.0898,-0.0891,-0.0869,-0.0793,-0.0696,-0.0434,-0.0158,0.0096,0.041,0.06,0.058,0.0625,0.0558,0.0553,0.0549,0.0521,0.0594,0.0594,0.0595,0.0595,0,0,-0.0701,-0.075,-0.0775,-0.0844,-0.0883,-0.0915,-0.0924,-0.0907,-0.0857,-0.0782,-0.067,-0.0498,-0.0175,0.004,0.0281,0.0445,0.0446,0.0457,0.0458,0.0346,0.0339,0.0502,0.0452,0,0,0,0,0]}],[{"header":{"parameterUnit":"m.s-1","parameterCategory":2,"la1":30.2991,"la2":30.254,"lo1":-89.0895,"lo2":-89.0444,"dy":0.0017,"dx":0.0017,"nx":28,"ny":28,"refTime":"2025-01-14T03:00:00:Z","depth":"4","parameterNumber":2,"parameterNumberName":"U-component_of_CURRENTS"},"data":[0,0,0,0,0,0,0,0,0,0,0,0,0,0,0,0,0,0,0,0,0,0,0,0,0,0,0,0,0,0,0,0,0,0,0,0,0,0,0,0,0,0,0,0,0,0,0,0,0,0,0,0,0,0,0,0,0,0,-0.1223,-0.1223,0,-0.126,-0.1261,-0.1261,-0.1302,-0.1303,-0.1303,-0.1304,-0.1365,-0.1367,-0.1368,0,0,0,0,0,0,0,0,0,0,0,0,0,-0.1199,-0.12,-0.1223,-0.1224,-0.1224,-0.126,-0.1261,-0.1261,-0.1302,-0.1303,-0.1303,-0.1304,-0.1365,-0.1366,-0.1368,0,0,0,0,0,0,0,0,0,0,0,0,0,-0.1221,-0.12,-0.1223,-0.1248,-0.125,-0.126,-0.1261,-0.1262,-0.1302,-0.1303,-0.1304,-0.1304,-0.1365,-0.1366,-0.1368,-0.1364,0,0,-0.1373,-0.1374,0,0,0,0,0,0,0,0,-0.122,-0.1222,-0.1244,-0.1246,-0.1249,-0.1277,-0.1275,-0.1297,-0.1302,-0.1284,-0.1304,-0.1305,-0.1337,-0.1341,-0.1347,-0.1367,-0.1369,-0.1374,-0.1375,-0.1375,-0.1376,0,0,0,0,0,0,0,-0.1218,-0.1221,-0.1239,-0.1244,-0.1247,-0.1261,-0.1265,-0.1279,-0.1307,-0.1285,-0.1288,-0.129,-0.1339,-0.1345,-0.1349,-0.137,-0.1374,-0.1375,-0.1376,-0.1377,-0.1473,-0.1475,0,0,0,0,0,0,-0.121,-0.1219,-0.1238,-0.124,-0.1235,-0.1261,-0.1265,-0.1268,-0.1306,-0.1312,-0.129,-0.1292,-0.1342,-0.1347,-0.1351,-0.1426,-0.1375,-0.1377,-0.1378,-0.1472,-0.1474,-0.1475,0,0,0,0,0,0,-0.121,-0.1212,-0.1236,-0.123,-0.1234,-0.126,-0.1263,-0.1268,-0.1298,-0.1309,-0.1316,-0.1316,-0.1343,-0.1349,-0.1388,-0.1425,-0.1378,-0.1379,-0.147,-0.1472,-0.1474,-0.1525,0,0,0,0,0,0,-0.1209,-0.1211,-0.1223,-0.1229,-0.1234,-0.1262,-0.1262,-0.1268,-0.1296,-0.13,-0.1334,-0.1339,-0.1344,-0.1386,-0.139,-0.1427,-0.1381,-0.1468,-0.1471,-0.1474,-0.1521,-0.1528,-0.1535,0,0,0,0,0,-0.1208,-0.1213,-0.1223,-0.1226,-0.1244,-0.1263,-0.1268,-0.1289,-0.1297,-0.1318,-0.1339,-0.1339,-0.1407,-0.1388,-0.1393,-0.1431,-0.1467,-0.147,-0.1473,-0.1518,-0.1527,-0.1535,0,0,0,0,0,0,-0.1206,-0.1218,-0.1229,-0.1238,-0.126,-0.127,-0.1289,-0.1301,-0.1333,-0.1343,-0.1353,-0.136,-0.1409,-0.1411,-0.139,-0.1468,-0.1439,-0.1443,-0.1471,-0.148,-0.1486,-0.1486,-0.1382,0,0,0,0,0,-0.1211,-0.1221,-0.1237,-0.1247,-0.126,-0.1279,-0.1293,-0.1309,-0.133,-0.1346,-0.1371,-0.1397,-0.1422,-0.1444,-0.1464,-0.1503,-0.15,-0.1533,-0.154,-0.1546,-0.1549,-0.1571,-0.1579,-0.1486,-0.1486,-0.1486,0,0,-0.1214,-0.122,-0.1228,-0.1249,-0.1267,-0.1292,-0.1291,-0.1318,-0.1348,-0.1346,-0.1403,-0.142,-0.1436,-0.1484,-0.1507,-0.1495,-0.1572,-0.155,-0.1555,-0.1555,-0.1575,-0.1584,-0.1592,-0.1489,-0.1488,-0.1488,0,0,-0.1218,-0.1233,-0.1246,-0.1267,-0.1297,-0.1312,-0.1325,-0.1356,-0.1384,-0.1427,-0.1438,-0.1477,-0.1518,-0.1541,-0.1554,-0.1609,-0.1603,-0.1624,-0.1664,-0.1685,-0.1692,-0.1699,-0.1711,-0.1718,-0.1632,-0.1632,-0.1632,0,-0.1227,-0.1241,-0.1255,-0.1275,-0.1298,-0.1324,-0.1352,-0.138,-0.1425,-0.1452,-0.1455,-0.1525,-0.1543,-0.1594,-0.1622,-0.1625,-0.1632,-0.163,-0.1693,-0.1699,-0.1705,-0.1715,-0.1722,-0.1635,-0.1635,-0.1634,-0.1634,0,-0.1235,-0.1263,-0.1273,-0.131,-0.1337,-0.1366,-0.1403,-0.1446,-0.1479,-0.1506,-0.1569,-0.1593,-0.1636,-0.1654,-0.1658,-0.1718,-0.1708,-0.1694,-0.1669,-0.1717,-0.1725,-0.1732,-0.1639,-0.1638,-0.1637,-0.1637,0,0,-0.1221,-0.1272,-0.1282,-0.1309,-0.1361,-0.1381,-0.1439,-0.1495,-0.1538,-0.1585,-0.1637,-0.169,-0.1708,-0.1724,-0.1739,-0.1764,-0.1818,-0.1757,-0.1757,-0.1764,-0.1865,-0.1728,-0.1722,-0.1818,-0.1819,-0.182,-0.1855,0,-0.1234,-0.1278,-0.1302,-0.1358,-0.1387,-0.1434,-0.1482,-0.1537,-0.1587,-0.1646,-0.1681,-0.1732,-0.1733,-0.1762,-0.1791,-0.1813,-0.1838,-0.181,-0.1822,-0.1822,-0.169,-0.1726,-0.1824,-0.186,-0.1861,-0.1862,-0.1863,0,-0.1234,-0.1267,-0.1323,-0.1388,-0.1406,-0.1447,-0.1532,-0.1579,-0.166,-0.1698,-0.1754,-0.178,-0.1842,-0.1824,-0.1883,-0.1868,-0.1877,-0.1881,-0.1882,-0.1739,-0.1697,-0.1802,-0.1875,-0.1874,-0.1873,-0.1872,-0.1872,0,-0.121,-0.1281,-0.1328,-0.1351,-0.1428,-0.1471,-0.1519,-0.1601,-0.1646,-0.1737,-0.1775,-0.1839,-0.1877,-0.1902,-0.192,-0.1915,-0.1961,-0.1949,-0.183,-0.1821,-0.1912,-0.1904,-0.1982,-0.1982,-0.1981,-0.1981,-0.1981,0,-0.1199,-0.1239,-0.1327,-0.1349,-0.1411,-0.1468,-0.1539,-0.1598,-0.168,-0.172,-0.1802,-0.1831,-0.1901,-0.1931,-0.1939,-0.1897,-0.1977,-0.1838,-0.182,-0.1933,-0.1928,-0.1916,-0.1908,-0.1983,-0.1982,-0.1982,-0.1982,0,-0.1159,-0.1216,-0.1274,-0.1368,-0.1398,-0.1445,-0.1537,-0.1576,-0.167,-0.1726,-0.1755,-0.1846,-0.1877,-0.1919,-0.1957,-0.1903,-0.1886,-0.185,-0.197,-0.1957,-0.1732,-0.1727,-0.1726,-0.1721,-0.1717,-0.1714,-0.1711,0,-0.1137,-0.1164,-0.1276,-0.1302,-0.1348,-0.1421,-0.1457,-0.1559,-0.1587,-0.1707,-0.171,-0.179,-0.183,-0.1773,-0.1833,-0.1826,-0.1803,-0.1786,-0.1757,-0.1723,-0.1707,-0.1707,-0.1707,-0.1705,-0.1704,-0.1703,-0.1702,0,-0.1093,-0.1148,-0.1194,-0.125,-0.1297,-0.134,-0.1397,-0.1407,-0.1506,-0.1617,-0.1616,-0.1633,-0.1662,-0.168,-0.1683,-0.1678,-0.1792,-0.1745,-0.1753,-0.1726,-0.1698,-0.1686,-0.169,-0.1689,-0.1691,-0.1692,-0.1693,0,-0.106,-0.1078,-0.1137,-0.1171,-0.1225,-0.1221,-0.1273,-0.1288,-0.1332,-0.1458,-0.1452,-0.1539,-0.1631,-0.1603,-0.1606,-0.1587,-0.1568,-0.1516,-0.1535,-0.1551,-0.1476,-0.1414,-0.1301,0,0,0,0,0,-0.1017,-0.1008,-0.1038,-0.1061,-0.111,-0.1132,-0.1203,-0.1253,-0.1354,-0.1309,-0.1373,-0.1388,-0.14,-0.1451,-0.1396,-0.1535,-0.1577,-0.1466,-0.1528,-0.1614,-0.163,-0.1558,0,0,0,0,0,0,-0.0976,-0.1004,-0.1003,-0.0957,-0.0945,-0.0976,-0.1013,-0.1086,-0.1064,-0.1182,-0.1193,-0.1293,-0.1326,-0.1405,-0.1364,-0.1379,-0.1386,-0.1528,-0.1524,-0.1606,-0.162,-0.1632,-0.1563,0,0,0,0,0]},{"header":{"parameterUnit":"m.s-1","parameterCategory":2,"la1":30.2991,"la2":30.254,"lo1":-89.0895,"lo2":-89.0444,"dy":0.0017,"dx":0.0017,"nx":28,"ny":28,"refTime":"2025-01-14T03:00:00:Z","depth":"4","parameterNumber":3,"parameterNumberName":"V-component_of_CURRENTS"},"data":[0,0,0,0,0,0,0,0,0,0,0,0,0,0,0,0,0,0,0,0,0,0,0,0,0,0,0,0,0,0,0,0,0,0,0,0,0,0,0,0,0,0,0,0,0,0,0,0,0,0,0,0,0,0,0,0,0,0,0.0055,0.0055,0,0.0078,0.0079,0.0079,0.0094,0.0094,0.0095,0.0095,0.0127,0.0127,0.0128,0,0,0,0,0,0,0,0,0,0,0,0,0,0.0045,0.0045,0.0055,0.0055,0.0056,0.0078,0.0079,0.0079,0.0094,0.0094,0.0095,0.0095,0.0127,0.0127,0.0128,0,0,0,0,0,0,0,0,0,0,0,0,0,0.0056,0.0044,0.0055,0.0067,0.0068,0.0078,0.0079,0.0079,0.0094,0.0094,0.0095,0.0095,0.0126,0.0127,0.0128,0.013,0,0,0.0132,0.0132,0,0,0,0,0,0,0,0,0.0055,0.0056,0.0065,0.0066,0.0067,0.0084,0.0087,0.0097,0.0094,0.0083,0.0095,0.0095,0.0114,0.0116,0.0118,0.0131,0.0133,0.0132,0.0132,0.0133,0.0133,0,0,0,0,0,0,0,0.0054,0.0055,0.0064,0.0065,0.0067,0.0078,0.0079,0.0089,0.0097,0.0084,0.0086,0.0089,0.0114,0.0117,0.0119,0.0133,0.0132,0.0133,0.0133,0.0134,0.0161,0.0161,0,0,0,0,0,0,0.0051,0.0055,0.0063,0.0064,0.0063,0.0078,0.008,0.0078,0.0096,0.0099,0.0089,0.009,0.0115,0.0118,0.0121,0.0121,0.0133,0.0134,0.0134,0.0161,0.0161,0.0161,0,0,0,0,0,0,0.0051,0.0052,0.0062,0.0061,0.0063,0.0078,0.0076,0.0078,0.0081,0.01,0.0103,0.0089,0.0116,0.0119,0.013,0.0122,0.0134,0.0135,0.0161,0.0161,0.0161,0.0123,0,0,0,0,0,0,0.0051,0.0051,0.0047,0.006,0.0063,0.0061,0.0076,0.0079,0.0083,0.0084,0.0101,0.0104,0.0116,0.0129,0.0131,0.0124,0.0136,0.0161,0.0161,0.0161,0.0124,0.0122,0.012,0,0,0,0,0,0.005,0.0042,0.0047,0.0048,0.0057,0.006,0.0062,0.0073,0.0082,0.0077,0.0096,0.0103,0.0132,0.013,0.0133,0.0125,0.0161,0.0161,0.0161,0.0125,0.0122,0.012,0,0,0,0,0,0,0.0038,0.0043,0.0049,0.0043,0.0049,0.0063,0.006,0.0071,0.008,0.0082,0.0104,0.0108,0.0115,0.0128,0.0125,0.0136,0.0148,0.0149,0.0119,0.0117,0.0115,0.0109,0.0137,0,0,0,0,0,0.0032,0.0026,0.0036,0.0032,0.0032,0.0046,0.0049,0.0056,0.0068,0.0072,0.0088,0.0105,0.0119,0.0124,0.0137,0.0141,0.0166,0.014,0.0138,0.0136,0.0135,0.0173,0.0174,0.0162,0.0162,0.0162,0,0,0.0026,0.003,0.0026,0.0029,0.0033,0.0025,0.0047,0.0047,0.0042,0.0075,0.0075,0.0097,0.0119,0.0124,0.0129,0.0133,0.0152,0.0136,0.0134,0.0134,0.0173,0.0174,0.0175,0.0162,0.0162,0.0162,0,0,0.0006,0.0013,-0.0003,-0.0002,0.0001,0.001,0.0008,0.002,0.0026,0.0031,0.0056,0.0077,0.0091,0.0109,0.0119,0.0115,0.014,0.0117,0.0098,0.0135,0.0136,0.0138,0.0166,0.017,0.0114,0.0114,0.0114,0,-0.0004,-0.0019,-0.0006,-0.0021,-0.0024,-0.0001,-0.0019,-0.001,0.0006,0.0013,0.0025,0.0066,0.0084,0.0099,0.0098,0.0109,0.0133,0.0103,0.0132,0.0134,0.0136,0.0165,0.017,0.0112,0.0113,0.0113,0.0113,0,-0.0037,-0.0049,-0.0057,-0.007,-0.0071,-0.0081,-0.0069,-0.0065,-0.0049,-0.0033,-0.0011,0.0025,0.005,0.006,0.0076,0.0098,0.0111,0.0125,0.0136,0.0135,0.0165,0.0171,0.011,0.011,0.0111,0.0111,0,0,-0.0066,-0.0081,-0.0085,-0.01,-0.0099,-0.0105,-0.011,-0.0106,-0.0107,-0.0076,-0.0068,-0.0031,0.0001,0.0016,0.0047,0.008,0.0115,0.0105,0.0108,0.0128,0.0193,0.0181,0.0186,0.0135,0.0136,0.0137,0.0206,0,-0.0099,-0.0139,-0.0133,-0.0167,-0.0188,-0.0168,-0.0176,-0.0165,-0.0144,-0.0128,-0.0077,-0.0056,-0.002,-0.0005,0.0035,0.0097,0.013,0.0094,0.0195,0.0198,0.0184,0.0193,0.014,0.0211,0.0212,0.0213,0.0214,0,-0.0139,-0.0159,-0.0202,-0.0221,-0.0228,-0.0241,-0.0244,-0.0245,-0.0211,-0.0193,-0.0151,-0.0108,-0.0053,-0.0022,0.0085,0.0061,0.0121,0.0171,0.0176,0.0182,0.0197,0.0215,0.0225,0.0224,0.0224,0.0223,0.0222,0,-0.0174,-0.0207,-0.0243,-0.0252,-0.0267,-0.028,-0.0283,-0.0264,-0.0268,-0.0227,-0.0218,-0.0142,-0.0103,-0.0014,0.0091,0.0091,0.021,0.0223,0.0268,0.0268,0.0275,0.0273,0.0296,0.0296,0.0296,0.0295,0.0295,0,-0.0213,-0.0242,-0.0264,-0.0285,-0.0327,-0.0318,-0.0345,-0.0337,-0.0318,-0.0317,-0.025,-0.0229,-0.0097,-0.0013,0.0081,0.0193,0.0205,0.0267,0.0287,0.0256,0.0251,0.0279,0.0276,0.0298,0.0297,0.0297,0.0296,0,-0.0247,-0.026,-0.0306,-0.0334,-0.0346,-0.0375,-0.0397,-0.0409,-0.0385,-0.0379,-0.0367,-0.0284,-0.0173,-0.0045,0.0104,0.0174,0.0284,0.0318,0.0271,0.0286,0.0319,0.0313,0.0376,0.0376,0.0376,0.0376,0.0376,0,-0.0268,-0.0296,-0.0349,-0.038,-0.0396,-0.0433,-0.0456,-0.0447,-0.0454,-0.0413,-0.0411,-0.031,-0.0239,-0.0042,0.0092,0.0271,0.0294,0.0346,0.0339,0.0315,0.0328,0.0322,0.0317,0.0377,0.0377,0.0377,0.0377,0,-0.031,-0.033,-0.0369,-0.043,-0.0467,-0.0506,-0.0532,-0.0544,-0.052,-0.0502,-0.0441,-0.0333,-0.021,-0.0051,0.009,0.0216,0.0311,0.0349,0.0349,0.0343,0.0317,0.0329,0.0323,0.0377,0.0377,0.0377,0.0377,0,-0.0343,-0.0379,-0.0426,-0.0475,-0.0526,-0.0557,-0.057,-0.0565,-0.0563,-0.0508,-0.0488,-0.0349,-0.0262,-0.008,0.0047,0.0174,0.0204,0.0239,0.0246,0.0247,0.0189,0.0136,0.0159,0,0,0,0,0,-0.0372,-0.0408,-0.0464,-0.0514,-0.0561,-0.0579,-0.061,-0.0609,-0.0587,-0.055,-0.0515,-0.0399,-0.0202,-0.0121,0.0004,0.0048,0.0223,0.0197,0.0265,0.038,0.038,0.0332,0,0,0,0,0,0,-0.0393,-0.0449,-0.0468,-0.0526,-0.0559,-0.0602,-0.0619,-0.0605,-0.058,-0.0544,-0.0443,-0.0375,-0.0188,-0.0269,0.0005,0.0044,0.0101,0.0294,0.0296,0.0381,0.038,0.038,0.0331,0,0,0,0,0]}]]